sat.trackr.live / text

‹ back to catalog

STARLINK-11112 [DTC]

NORAD 60115 · 2024-118C

PAYLOAD ACTIVE UNKNOWN

§ Identity

Operator
Country
US
Launch date
2024-06-24
Launch site
AFWTR
Launch vehicle
Mass (kg)
RCS (m²)

Purposes: comms

External: N2YO · Heavens-Above · Gunter

§ Orbital elements

Epoch: 2026-05-24T16:00:07.676928Z

Period
91.74 min
Inclination
53.1594°
Eccentricity
0.0000898
Mean motion
15.69713349 rev/d
Perigee alt
359.1 km
Apogee alt
360.3 km
Semi-major
6,737.9 km
B*
1.3929e-5
RAAN
206.9224°
Arg perigee
93.0792°
Mean anomaly
267.0329°
Rev number
10,992

§ Raw data

STARLINK-11112 [DTC]1 60115U 24118C   26144.66675552  .00001100  00000+0  13929-4 0  99972 60115  53.1594 206.9224 0000898  93.0792 267.0329 15.69713349109920

JSON: /api/v1/satellites/60115 · /tle

For live sub-satellite position, see the globe view (requires WebGL).

§ Visibility from observer

Set your observer location to see the next 7 days of passes ≥ 10°. The values pass through the URL so the page stays shareable.

No JS? Fill the form by hand. The geolocation button needs JavaScript.